Tracking 19247 objects as of 24-Sep-2018
HD Live streaming from Space Station
objects crossing your sky now

FENGYUN 1C DEB

Track FENGYUN 1C DEB now!
10-day predictions


NORAD ID: 30701
Int'l Code: 1999-025ARK
Perigee: 828.2 km
Apogee: 878.9 km
Inclination: 99.1 °
Period: 101.9 minutes
Semi major axis: 7224 km
RCS: 0.019 m2 (small)
Launch date: May 10, 1999
Source: People's Republic of China (PRC)
Launch site: Taiyaun Space Center, China (TSC)

Note: This is SATELLITE DEBRIS
aabbcc
Your satellite tracking list
Your tracking list is empty




NASA's NSSDC Master Catalog

Two Line Element Set (TLE):
1 30701U 99025ARK 18266.53317372 -.00000027 +00000-0 +10017-4 0  9993
2 30701 099.0552 281.8363 0035097 022.1197 129.3309 14.13789542598609
Source of the keplerian elements: AFSPC